This demonstration page uses our WeatherBlox Daily Observations layout. Learn more.

Left ArrowRight Arrow

Hourly Observations for September 4, 2022

Temp ( °F °C ) Dew Point ( °F °C ) Humidity (%) Winds ( mph kmh ) Pressure ( in mb ) Visibility ( mi km ) Precip ( " mm )
12:53 am 00:53 Cloudy with Light Rain 70 21.1 69 20.6 97 97 Calm 30.09 1019 9 14 0.01 0.13
1:53 am 01:53 Mostly Clear 69 20.6 68 20 96 96 ENE 3 6 30.08 1019 8 13 0.01 0.13
2:38 am 02:38 Mostly Cloudy 70 21.1 68 20 93 93 NNE 6 9 30.05 1018 10 16 0.00 0.00
2:53 am 02:53 Cloudy 70 21.1 68 20 93 93 NE 6 9 30.05 1018 10 16 0.00 0.00
3:53 am 03:53 Cloudy 70 21.1 68 20 93 93 Calm 30.06 1018 10 16 0.00 0.00
4:49 am 04:49 Cloudy with Mist and Fog 70 21 68 20 94 94 Calm 30.05 1018 6 10 0.00 0.00
4:53 am 04:53 Cloudy with Mist and Fog 70 21.1 69 20.6 97 97 Calm 30.06 1018 6 10 0.00 0.00
5:06 am 05:06 Cloudy with Mist and Fog 70 21.1 69 20.6 97 97 Calm 30.06 1018 5 8 0.00 0.00
5:26 am 05:26 Cloudy 70 21.1 68 20 93 93 ENE 3 6 30.05 1018 8 13 0.00 0.00
5:53 am 05:53 Cloudy with Mist and Fog 70 21.1 68 20 93 93 Calm 30.06 1018 6 10 0.00 0.00
6:01 am 06:01 Cloudy with Mist and Fog 70 21.1 68 20 93 93 Calm 30.05 1018 6 10 0.00 0.00
6:50 am 06:50 Cloudy with Mist and Fog 70 21 70 21 100 100 Calm 30.06 1018 6 10 0.00 0.00
6:53 am 06:53 Cloudy with Mist and Fog 70 21.1 68 20 93 93 Calm 30.06 1018 6 10 0.00 0.00
7:36 am 07:36 Mostly Cloudy with Mist and Fog 69 20.6 68 20 96 96 Calm 30.07 1018 2 3 0.00 0.00
7:48 am 07:48 Mostly Cloudy with Mist and Fog 70 21 68 20 94 94 Calm 30.07 1018 2 3 0.00 0.00
7:57 am 07:57 Cloudy with Mist and Fog 70 21.1 69 20.6 97 97 Calm 30.07 1018 3 5 0.00 0.00
8:12 am 08:12 Cloudy with Mist and Fog 70 21.1 69 20.6 97 97 Calm 30.07 1018 4 6 0.00 0.00
8:35 am 08:35 Mostly Cloudy with Mist and Fog 70 21.1 69 20.6 97 97 Calm 30.07 1018 2 3 0.00 0.00
8:39 am 08:39 Partly Cloudy with Mist and Fog 70 21.1 69 20.6 97 97 Calm 30.07 1018 2 3 0.00 0.00
8:51 am 08:51 Mostly Cloudy with Mist and Fog 70 21 70 21 100 100 Calm 30.07 1018 3 4 0.00 0.00
8:53 am 08:53 Mostly Cloudy with Mist and Fog 70 21.1 69 20.6 97 97 Calm 30.08 1019 3 5 0.00 0.00
9:17 am 09:17 Mostly Cloudy 73 22.8 70 21.1 90 90 Calm 30.07 1018 7 11 0.00 0.00
9:24 am 09:24 Mostly Cloudy 73 22.8 70 21.1 90 90 E 3 6 30.07 1018 8 13 0.00 0.00
9:42 am 09:42 Cloudy 73 22.8 70 21.1 90 90 Calm 30.07 1018 8 13 0.00 0.00
9:53 am 09:53 Cloudy 73 22.8 70 21.1 90 90 ESE 5 7 30.08 1019 9 14 0.00 0.00
10:53 am 10:53 Cloudy 74 23.3 70 21.1 87 87 Calm 30.08 1019 10 16 0.00 0.00
11:53 am 11:53 Mostly Cloudy 76 24.4 69 20.6 79 79 Calm 30.07 1018 10 16 0.00 0.00
12:53 pm 12:53 Mostly Cloudy 78 25.6 69 20.6 74 74 Calm 30.06 1018 10 16 0.00 0.00
1:53 pm 13:53 Mostly Cloudy 80 26.7 69 20.6 69 69 Calm 30.04 1017 10 16 0.00 0.00
2:31 pm 14:31 Mostly Cloudy 80 26.7 69 20.6 69 69 Calm 30.01 1016 10 16 0.00 0.00
2:48 pm 14:48 Cloudy 81 27 70 21 70 70 Calm 30.01 1016 10 16 0.00 0.00
2:53 pm 14:53 Cloudy 81 27.2 69 20.6 67 67 Calm 30.02 1017 10 16 0.00 0.00
3:53 pm 15:53 Mostly Cloudy 82 27.8 70 21.1 67 67 Calm 30.00 1016 10 16 0.00 0.00
4:11 pm 16:11 Mostly Cloudy with Nearby Thunderstorms 81 27.2 70 21.1 69 69 Calm 29.98 1015 10 16 0.00 0.00
4:21 pm 16:21 Cloudy with Thunderstorms 80 26.7 71 21.7 74 74 Calm 29.98 1015 10 16 0.00 0.00
4:38 pm 16:38 Mostly Cloudy with Light Rain 77 25 71 21.7 82 82 VRB 7 11 29.98 1015 2 3 0.06 1.52
4:40 pm 16:40 Cloudy with Nearby Thunderstorms 75 23.9 71 21.7 88 88 SSW 6 9 29.99 1015 1 1 0.11 2.79
4:55 pm 16:55 Cloudy with Light Rain 74 23.3 71 21.7 91 91 Calm 29.99 1015 3 4 0.01 0.13
5:00 pm 17:00 Mostly Cloudy with Thunderstorms 74 23.3 72 22.2 94 94 Calm 29.99 1015 8 13 0.01 0.13
5:27 pm 17:27 Partly Cloudy with Nearby Thunderstorms 76 24.4 71 21.7 85 85 Calm 29.98 1015 9 14 0.01 0.13
5:53 pm 17:53 Mostly Sunny 76 24.4 71 21.7 85 85 Calm 29.98 1015 10 16 0.01 0.25
6:53 pm 18:53 Sunny 78 25.6 72 22.2 82 82 Calm 29.98 1015 10 16 0.00 0.00
7:53 pm 19:53 Sunny 74 23.3 73 22.8 97 97 Calm 29.98 1015 9 14 0.00 0.00
8:26 pm 20:26 Mostly Cloudy 73 22.8 72 22.2 96 96 Calm 29.97 1015 10 16 0.00 0.00
8:40 pm 20:40 Cloudy 73 22.8 72 22.2 96 96 Calm 29.97 1015 10 16 0.00 0.00
8:53 pm 20:53 Mostly Cloudy 73 22.8 72 22.2 96 96 Calm 29.98 1015 9 14 0.00 0.00
9:53 pm 21:53 Cloudy 73 22.8 72 22.2 96 96 Calm 30.00 1016 8 13 0.00 0.00
10:01 pm 22:01 Cloudy with Nearby Thunderstorms 73 22.8 72 22.2 96 96 Calm 29.99 1016 10 16 0.00 0.00
10:13 pm 22:13 Cloudy with Nearby Thunderstorms 73 22.8 72 22.2 96 96 Calm 29.99 1016 6 10 0.01 0.13
10:26 pm 22:26 Mostly Cloudy with Nearby Thunderstorms 73 22.8 72 22.2 96 96 Calm 29.99 1016 5 8 0.01 0.13
10:35 pm 22:35 Cloudy with Nearby Thunderstorms 73 22.8 71 21.7 94 94 NE 5 7 30.00 1016 10 16 0.01 0.13
10:53 pm 22:53 Cloudy with Nearby Thunderstorms 73 22.8 72 22.2 96 96 Calm 30.00 1016 8 13 0.01 0.13
11:53 pm 23:53 Cloudy with Nearby Thunderstorms 72 22.2 68 20 87 87 N 7 11 30.01 1016 10 16 0.00 0.00

Powered by AerisWeather